This is the latest recevied weather packets stored in our database for station/object N3DXC. If no packets are shown the sender has not sent any weather packets the latest 10 day(s).
| Time | Temp. | Humidity | Pressure | Rain* | Wind** | Luminosity | Snow |
|---|---|---|---|---|---|---|---|
| 1778183984 | 13.33° C | 47% | 1010 hPa | 0 mm | - | - | - |
| 1778183684 | 12.78° C | 47% | 1010.1 hPa | 0 mm | - | - | - |
| 1778183384 | 13.33° C | 47% | 1010.2 hPa | 0 mm | - | - | - |
| 1778183084 | 12.78° C | 45% | 1010.2 hPa | 0 mm | - | - | - |
| 1778182784 | 12.78° C | 45% | 1010.3 hPa | 0 mm | - | - | - |
| 1778182484 | 12.78° C | 47% | 1010.2 hPa | 0 mm | - | - | - |
| 1778182184 | 13.33° C | 46% | 1010.3 hPa | 0 mm | - | - | - |
| 1778181885 | 13.33° C | 43% | 1010.3 hPa | 0 mm | - | - | - |
| 1778181585 | 13.89° C | 44% | 1010.3 hPa | 0 mm | - | - | - |
| 1778181286 | 13.33° C | 46% | 1010.4 hPa | 0 mm | - | - | - |
| 1778180984 | 13.33° C | 43% | 1010.3 hPa | 0 mm | - | - | - |
| 1778180684 | 13.89° C | 45% | 1010.2 hPa | 0 mm | - | - | - |
| 1778180384 | 13.33° C | 45% | 1010.4 hPa | 0 mm | - | - | - |
| 1778180085 | 13.33° C | 49% | 1010.5 hPa | 0 mm | - | - | - |
| 1778179784 | 12.78° C | 44% | 1010.5 hPa | 0 mm | - | - | - |
| 1778179484 | 12.78° C | 47% | 1010.6 hPa | 0 mm | - | - | - |
| 1778179184 | 13.33° C | 47% | 1010.7 hPa | 0 mm | - | - | - |
| 1778178886 | 12.78° C | 47% | 1010.7 hPa | 0 mm | - | - | - |
| 1778178584 | 12.78° C | 50% | 1010.6 hPa | 0 mm | - | - | - |
| 1778178284 | 12.78° C | 49% | 1010.7 hPa | 0 mm | - | - | - |
| 1778177985 | 12.78° C | 48% | 1010.7 hPa | 0 mm | - | - | - |
| 1778177684 | 12.78° C | 48% | 1010.8 hPa | 0 mm | - | - | - |
| 1778177384 | 12.22° C | 49% | 1010.7 hPa | 0 mm | - | - | - |
| 1778177084 | 12.22° C | 49% | 1010.8 hPa | 0 mm | - | - | - |
| 1778176784 | 12.22° C | 48% | 1010.9 hPa | 0 mm | - | - | - |
* Rain latest hour (hover to see other rain measurements)
** Current wind speed in m/s (hover to see current wind gust speed)